Time,TemperatureF,DewpointF,PressureIn,WindDirection,WindDirectionDegrees,WindSpeedMPH,WindSpeedGustMPH,Humidity,HourlyPrecipIn,Conditions,Clouds,dailyrainin,SoftwareType,DateUTC
2013-08-18 00:03:00,61.8,-99.9,-100.00,North,-999,0.0,0.0,-999,0.00,,,-99.99,WeatherLink 5.4,2013-08-18 04:03:00,
2013-08-18 00:33:00,61.1,-99.9,-100.00,North,-999,0.0,0.0,-999,0.00,,,-99.99,WeatherLink 5.4,2013-08-18 04:33:00,
2013-08-18 01:03:00,61.1,-99.9,-100.00,North,-999,0.0,0.0,-999,0.00,,,-99.99,WeatherLink 5.4,2013-08-18 05:03:00,
2013-08-18 01:33:00,60.3,-99.9,-100.00,North,-999,0.0,0.0,-999,0.00,,,-99.99,WeatherLink 5.4,2013-08-18 05:33:00,
2013-08-18 02:03:00,59.3,-99.9,-100.00,North,-999,0.0,0.0,-999,0.00,,,-99.99,WeatherLink 5.4,2013-08-18 06:03:00,
2013-08-18 02:33:00,58.5,-99.9,-100.00,North,-999,0.0,0.0,-999,0.00,,,-99.99,WeatherLink 5.4,2013-08-18 06:33:00,
2013-08-18 03:03:00,58.1,-99.9,-100.00,North,-999,0.0,0.0,-999,0.00,,,-99.99,WeatherLink 5.4,2013-08-18 07:03:00,
2013-08-18 03:33:00,58.1,-99.9,-100.00,North,-999,0.0,0.0,-999,0.00,,,-99.99,WeatherLink 5.4,2013-08-18 07:33:00,
2013-08-18 04:03:00,57.2,-99.9,-100.00,North,-999,0.0,0.0,-999,0.00,,,-99.99,WeatherLink 5.4,2013-08-18 08:03:00,
2013-08-18 04:33:00,57.1,-99.9,-100.00,North,-999,0.0,0.0,-999,0.00,,,-99.99,WeatherLink 5.4,2013-08-18 08:33:00,
2013-08-18 05:03:00,56.6,-99.9,-100.00,North,-999,0.0,0.0,-999,0.00,,,-99.99,WeatherLink 5.4,2013-08-18 09:03:00,
2013-08-18 05:33:00,56.4,-99.9,-100.00,North,-999,0.0,0.0,-999,0.00,,,-99.99,WeatherLink 5.4,2013-08-18 09:33:00,
2013-08-18 06:03:00,56.1,-99.9,-100.00,North,-999,0.0,0.0,-999,0.00,,,-99.99,WeatherLink 5.4,2013-08-18 10:03:00,
2013-08-18 06:33:00,56.4,-99.9,-100.00,North,-999,0.0,0.0,-999,0.00,,,-99.99,WeatherLink 5.4,2013-08-18 10:33:00,
2013-08-18 07:03:00,56.6,-99.9,-100.00,North,-999,0.0,0.0,-999,0.00,,,-99.99,WeatherLink 5.4,2013-08-18 11:03:00,
2013-08-18 07:33:00,56.4,-99.9,-100.00,North,-999,0.0,0.0,-999,0.00,,,-99.99,WeatherLink 5.4,2013-08-18 11:33:00,
2013-08-18 08:03:00,58.5,-99.9,-100.00,North,-999,0.0,0.0,-999,0.00,,,-99.99,WeatherLink 5.4,2013-08-18 12:03:00,
2013-08-18 08:33:00,58.9,-99.9,-100.00,North,-999,0.0,0.0,-999,0.00,,,-99.99,WeatherLink 5.4,2013-08-18 12:33:00,
2013-08-18 09:03:00,60.6,-99.9,-100.00,North,-999,0.0,0.0,-999,0.00,,,-99.99,WeatherLink 5.4,2013-08-18 13:03:00,
2013-08-18 09:33:00,61.8,-99.9,-100.00,North,-999,0.0,0.0,-999,0.00,,,-99.99,WeatherLink 5.4,2013-08-18 13:33:00,
2013-08-18 10:03:00,63.3,-99.9,-100.00,North,-999,0.0,0.0,-999,0.00,,,-99.99,WeatherLink 5.4,2013-08-18 14:03:00,
2013-08-18 10:33:00,65.0,-99.9,-100.00,North,-999,0.0,0.0,-999,0.00,,,-99.99,WeatherLink 5.4,2013-08-18 14:33:00,
2013-08-18 11:03:00,65.5,-99.9,-100.00,North,-999,0.0,0.0,-999,0.00,,,-99.99,WeatherLink 5.4,2013-08-18 15:03:00,
2013-08-18 11:33:00,67.8,-99.9,-100.00,North,-999,0.0,0.0,-999,0.00,,,-99.99,WeatherLink 5.4,2013-08-18 15:33:00,
2013-08-18 12:03:00,69.1,-99.9,-100.00,WSW,247,1.0,6.0,-999,0.00,,,-99.99,WeatherLink 5.4,2013-08-18 16:03:00,
2013-08-18 12:33:00,70.1,-99.9,-100.00,SW,225,0.0,6.0,-999,0.00,,,-99.99,WeatherLink 5.4,2013-08-18 16:33:00,
2013-08-18 13:03:00,71.8,-99.9,-100.00,North,-999,0.0,2.0,-999,0.00,,,-99.99,WeatherLink 5.4,2013-08-18 17:03:00,
2013-08-18 13:33:00,80.5,-99.9,-100.00,WSW,247,0.0,3.0,-999,0.00,,,-99.99,WeatherLink 5.4,2013-08-18 17:33:00,
2013-08-18 14:03:00,76.2,-99.9,-100.00,West,270,0.0,5.0,-999,0.00,,,-99.99,WeatherLink 5.4,2013-08-18 18:03:00,
2013-08-18 14:33:00,73.8,-99.9,-100.00,WSW,247,0.0,4.0,-999,0.00,,,-99.99,WeatherLink 5.4,2013-08-18 18:33:00,
2013-08-18 15:03:00,74.0,-99.9,-100.00,SW,225,0.0,8.0,-999,0.00,,,-99.99,WeatherLink 5.4,2013-08-18 19:03:00,
2013-08-18 15:33:00,73.7,-99.9,-100.00,WSW,247,1.0,8.0,-999,0.00,,,-99.99,WeatherLink 5.4,2013-08-18 19:33:00,
2013-08-18 16:03:00,73.2,-99.9,-100.00,WSW,247,1.0,7.0,-999,0.00,,,-99.99,WeatherLink 5.4,2013-08-18 20:03:00,
2013-08-18 16:33:00,73.2,-99.9,-100.00,WSW,247,2.0,8.0,-999,0.00,,,-99.99,WeatherLink 5.4,2013-08-18 20:33:00,
2013-08-18 17:03:00,72.6,-99.9,-100.00,SSW,202,1.0,7.0,-999,0.00,,,-99.99,WeatherLink 5.4,2013-08-18 21:03:00,
2013-08-18 17:33:00,72.9,-99.9,-100.00,SW,225,1.0,6.0,-999,0.00,,,-99.99,WeatherLink 5.4,2013-08-18 21:33:00,
2013-08-18 18:03:00,73.0,-99.9,-100.00,SW,225,0.0,4.0,-999,0.00,,,-99.99,WeatherLink 5.4,2013-08-18 22:03:00,
2013-08-18 18:33:00,72.2,-99.9,-100.00,SW,225,0.0,4.0,-999,0.00,,,-99.99,WeatherLink 5.4,2013-08-18 22:33:00,
2013-08-18 19:03:00,71.4,-99.9,-100.00,SW,225,0.0,3.0,-999,0.00,,,-99.99,WeatherLink 5.4,2013-08-18 23:03:00,
2013-08-18 19:33:00,70.6,-99.9,-100.00,North,-999,0.0,0.0,-999,0.00,,,-99.99,WeatherLink 5.4,2013-08-18 23:33:00,
2013-08-18 20:03:00,70.7,-99.9,-100.00,SW,225,0.0,4.0,-999,0.00,,,-99.99,WeatherLink 5.4,2013-08-19 00:03:00,
2013-08-18 20:33:00,70.0,-99.9,-100.00,North,-999,0.0,0.0,-999,0.00,,,-99.99,WeatherLink 5.4,2013-08-19 00:33:00,
2013-08-18 21:03:00,69.5,-99.9,-100.00,North,-999,0.0,1.0,-999,0.00,,,-99.99,WeatherLink 5.4,2013-08-19 01:03:00,
2013-08-18 21:33:00,68.6,-99.9,-100.00,SW,225,0.0,6.0,-999,0.00,,,-99.99,WeatherLink 5.4,2013-08-19 01:33:00,
2013-08-18 22:03:00,67.8,-99.9,-100.00,SW,225,0.0,4.0,-999,0.00,,,-99.99,WeatherLink 5.4,2013-08-19 02:03:00,
2013-08-18 22:33:00,67.1,-99.9,-100.00,North,-999,0.0,0.0,-999,0.00,,,-99.99,WeatherLink 5.4,2013-08-19 02:33:00,
2013-08-18 23:03:00,66.4,-99.9,-100.00,North,-999,0.0,0.0,-999,0.00,,,-99.99,WeatherLink 5.4,2013-08-19 03:03:00,
2013-08-18 23:33:00,66.1,-99.9,-100.00,North,-999,0.0,2.0,-999,0.00,,,-99.99,WeatherLink 5.4,2013-08-19 03:33:00,